Location: Laterina
(43.5167°N, 11.7167°E)
Time: 04:39:17
(UTC+00:00)

Cosmos 1125 Rocket - Pass Details

Date: 23 June 2021
Orbit: 757 x 780 km, 74.0° (Epoch: 26 July)

Event Time Altitude Azimuth Distance (km) Brightness Sun altitude
Rises 02:39:16 0° 322° (NW) 3,249 6.8 -8.4°
Reaches altitude 10° 02:42:32 10° 301° (WNW) 2,321 5.8 -7.9°
Maximum altitude 02:45:36 16° 265° (W) 1,942 5.1 -7.5°
Drops below altitude 10° 02:48:41 10° 229° (SW) 2,319 5.3 -7.1°
Enters shadow 02:49:14 - 224° (SW) 2,449 5.4 -7.0°
